Year,Month,Day,Hour,Minute,Value (Times are PST for temperature in C)
2010,06,23,00,00,15.00
2010,06,23,00,01,15.00
2010,06,23,00,02,15.10
2010,06,23,00,03,15.00
2010,06,23,00,04,15.10
2010,06,23,00,05,15.10
2010,06,23,00,06,15.10
2010,06,23,00,07,15.10
2010,06,23,00,08,15.00
2010,06,23,00,09,15.00
2010,06,23,00,10,15.00
2010,06,23,00,11,15.00
2010,06,23,00,12,14.90
2010,06,23,00,13,14.90
2010,06,23,00,14,14.90
2010,06,23,00,15,14.80
2010,06,23,00,16,14.80
2010,06,23,00,17,14.80
2010,06,23,00,18,14.80
2010,06,23,00,19,14.70
2010,06,23,00,20,14.70
2010,06,23,00,21,14.70
2010,06,23,00,22,14.70
2010,06,23,00,23,14.70
2010,06,23,00,24,14.70
2010,06,23,00,25,14.60
2010,06,23,00,26,14.60
2010,06,23,00,27,14.60
2010,06,23,00,28,14.60
2010,06,23,00,29,14.60
2010,06,23,00,30,14.60
2010,06,23,00,31,14.60
2010,06,23,00,32,14.60
2010,06,23,00,33,14.60
2010,06,23,00,34,14.60
2010,06,23,00,35,14.60
2010,06,23,00,36,14.60
2010,06,23,00,37,14.60
2010,06,23,00,38,14.60
2010,06,23,00,39,14.60
2010,06,23,00,40,14.60
2010,06,23,00,41,14.60
2010,06,23,00,42,14.60
2010,06,23,00,43,14.60
2010,06,23,00,44,14.60
2010,06,23,00,45,14.60
2010,06,23,00,46,14.60
2010,06,23,00,47,14.60
2010,06,23,00,48,14.60
2010,06,23,00,49,14.60
2010,06,23,00,50,14.60
2010,06,23,00,51,14.60
2010,06,23,00,52,14.60
2010,06,23,00,53,14.60
2010,06,23,00,54,14.60
2010,06,23,00,55,14.60
2010,06,23,00,56,14.60
2010,06,23,00,57,14.60
2010,06,23,00,58,14.60
2010,06,23,00,59,14.60
2010,06,23,01,00,14.60
2010,06,23,01,01,14.50
2010,06,23,01,02,14.50
2010,06,23,01,03,14.50
2010,06,23,01,04,14.50
2010,06,23,01,05,14.50
2010,06,23,01,06,14.50
2010,06,23,01,07,14.50
2010,06,23,01,08,14.50
2010,06,23,01,09,14.50
2010,06,23,01,10,14.50
2010,06,23,01,11,14.50
2010,06,23,01,12,14.50
2010,06,23,01,13,14.50
2010,06,23,01,14,14.50
2010,06,23,07,39,16.40
2010,06,23,07,40,16.40
2010,06,23,07,41,16.40
2010,06,23,07,42,16.40
2010,06,23,07,43,16.40
2010,06,23,07,44,16.50
2010,06,23,07,45,16.50
2010,06,23,07,46,16.50
2010,06,23,07,47,16.50
2010,06,23,07,48,16.60
2010,06,23,07,49,16.60
2010,06,23,07,50,16.60
2010,06,23,07,51,16.60
2010,06,23,07,52,16.60
2010,06,23,07,53,16.60
2010,06,23,07,54,16.60
2010,06,23,07,55,16.70
2010,06,23,07,56,16.70
2010,06,23,07,57,16.70
2010,06,23,07,58,16.70
2010,06,23,07,59,16.70
2010,06,23,08,00,16.80
2010,06,23,08,01,16.80
2010,06,23,08,02,16.80
2010,06,23,08,03,16.80
2010,06,23,08,04,16.90
2010,06,23,08,05,16.90
2010,06,23,08,06,16.90
2010,06,23,08,07,17.00
2010,06,23,08,08,17.00
2010,06,23,08,09,17.00
2010,06,23,08,10,17.10
2010,06,23,08,11,17.10
2010,06,23,08,12,17.10
2010,06,23,08,13,17.10
2010,06,23,08,14,17.20
2010,06,23,08,15,17.20
2010,06,23,08,16,17.20
2010,06,23,08,17,17.20
2010,06,23,08,18,17.30
2010,06,23,08,19,17.30
2010,06,23,08,20,17.30
2010,06,23,08,21,17.30
2010,06,23,08,22,17.30
2010,06,23,08,23,17.30
2010,06,23,08,24,17.20
2010,06,23,08,25,17.20
2010,06,23,08,26,17.10
2010,06,23,08,27,17.00
2010,06,23,08,28,17.00
2010,06,23,08,29,16.90
2010,06,23,08,30,16.80
2010,06,23,08,31,16.80
2010,06,23,08,32,16.70
2010,06,23,08,33,16.60
2010,06,23,08,34,16.40
2010,06,23,08,35,16.30
2010,06,23,08,36,16.20
2010,06,23,08,37,16.20
2010,06,23,08,38,16.10
2010,06,23,08,39,16.10
2010,06,23,08,40,16.10
2010,06,23,08,41,16.10
2010,06,23,08,42,16.10
2010,06,23,08,43,16.10
2010,06,23,08,44,16.10
2010,06,23,08,45,16.10
2010,06,23,08,46,16.10
2010,06,23,08,47,16.10
2010,06,23,08,48,16.10
2010,06,23,08,49,16.10
2010,06,23,08,50,16.10
2010,06,23,08,51,16.10
2010,06,23,08,52,16.10
2010,06,23,08,53,16.10
2010,06,23,08,54,16.20
2010,06,23,08,55,16.20
2010,06,23,08,56,16.20
2010,06,23,08,57,16.20
2010,06,23,08,58,16.20
2010,06,23,08,59,16.20
2010,06,23,09,00,16.20
2010,06,23,09,01,16.20
2010,06,23,09,02,16.20
2010,06,23,09,03,16.30
2010,06,23,09,04,16.30
2010,06,23,09,05,16.30
2010,06,23,09,06,16.30
2010,06,23,09,07,16.30
2010,06,23,09,08,16.30
2010,06,23,09,09,16.40
2010,06,23,09,10,16.40
2010,06,23,09,11,16.40
2010,06,23,09,12,16.50
2010,06,23,09,13,16.50
2010,06,23,09,14,16.60
2010,06,23,09,15,16.60
2010,06,23,09,16,16.60
2010,06,23,09,17,16.70
2010,06,23,09,18,16.70
2010,06,23,09,19,16.70
2010,06,23,09,20,16.80
2010,06,23,09,21,16.80
2010,06,23,09,22,16.90
2010,06,23,09,23,16.90
2010,06,23,09,24,17.00
2010,06,23,09,25,17.10
2010,06,23,09,26,17.10
2010,06,23,09,27,17.20
2010,06,23,09,28,17.20
2010,06,23,09,29,17.30
2010,06,23,09,30,17.30
2010,06,23,09,31,17.30
2010,06,23,09,32,17.40
2010,06,23,09,33,17.40
2010,06,23,09,34,17.50
2010,06,23,09,35,17.50
2010,06,23,09,36,17.60
2010,06,23,09,37,17.60
2010,06,23,09,38,17.70
2010,06,23,09,39,17.80
2010,06,23,09,40,17.80
2010,06,23,09,41,17.90
2010,06,23,09,42,18.00
2010,06,23,09,43,18.10
2010,06,23,09,44,18.20
2010,06,23,09,45,18.30
2010,06,23,09,46,18.40
2010,06,23,09,47,18.50
2010,06,23,09,48,18.60
2010,06,23,09,49,18.70
2010,06,23,09,50,18.80
2010,06,23,09,51,18.90
2010,06,23,09,52,19.00
2010,06,23,09,53,19.10
2010,06,23,09,54,19.20
2010,06,23,09,55,19.20
2010,06,23,09,56,19.30
2010,06,23,09,57,19.40
2010,06,23,09,58,19.40
2010,06,23,09,59,19.40
2010,06,23,10,00,19.40
2010,06,23,10,01,19.40
2010,06,23,10,02,19.50
2010,06,23,10,03,19.70
2010,06,23,10,04,19.70
2010,06,23,10,05,19.80
2010,06,23,10,06,19.80
2010,06,23,10,07,19.90
2010,06,23,10,08,19.90
2010,06,23,10,09,20.00
2010,06,23,10,10,20.00
2010,06,23,10,11,20.10
2010,06,23,10,12,20.10
2010,06,23,10,13,20.10
2010,06,23,10,14,20.10
2010,06,23,10,15,20.20
2010,06,23,10,16,20.20
2010,06,23,10,17,20.20
2010,06,23,10,18,20.20
2010,06,23,10,19,20.20
2010,06,23,10,20,20.20
2010,06,23,10,21,20.20
2010,06,23,10,22,20.20
2010,06,23,10,23,20.30
2010,06,23,10,24,20.30
2010,06,23,10,25,20.40
2010,06,23,10,26,20.40
2010,06,23,10,27,20.50
2010,06,23,10,28,20.60
2010,06,23,10,29,20.60
2010,06,23,10,30,20.70
2010,06,23,10,31,20.70
2010,06,23,10,32,20.80
2010,06,23,10,33,20.80
2010,06,23,10,34,20.80
2010,06,23,10,35,20.80
2010,06,23,10,36,20.80
2010,06,23,10,37,20.70
2010,06,23,10,38,20.70
2010,06,23,10,39,20.60
2010,06,23,10,40,20.50
2010,06,23,10,41,20.50
2010,06,23,10,42,20.40
2010,06,23,10,43,20.40
2010,06,23,10,44,20.30
2010,06,23,10,45,20.30
2010,06,23,10,46,20.20
2010,06,23,10,47,20.20
2010,06,23,10,48,20.20
2010,06,23,10,49,20.20
2010,06,23,10,50,20.20
2010,06,23,10,51,20.20
2010,06,23,10,52,20.20
2010,06,23,10,53,20.20
2010,06,23,10,54,20.30
2010,06,23,10,55,20.30
2010,06,23,10,56,20.30
2010,06,23,10,57,20.30
2010,06,23,10,58,20.30
2010,06,23,10,59,20.30
2010,06,23,11,00,20.30
2010,06,23,11,01,20.40
2010,06,23,11,02,20.40
2010,06,23,11,03,20.40
2010,06,23,11,04,20.40
2010,06,23,11,05,20.40
2010,06,23,11,06,20.40
2010,06,23,11,07,20.40
2010,06,23,11,08,20.40
2010,06,23,11,09,20.40
2010,06,23,11,10,20.50
2010,06,23,11,11,20.60
2010,06,23,11,12,20.60
2010,06,23,11,13,20.70
2010,06,23,11,14,20.70
2010,06,23,11,15,20.80
2010,06,23,11,16,20.80
2010,06,23,11,17,20.90
2010,06,23,11,18,21.00
2010,06,23,11,19,21.10
2010,06,23,11,20,21.20
2010,06,23,11,21,21.30
2010,06,23,11,22,21.40
2010,06,23,11,23,21.40
2010,06,23,11,24,21.50
2010,06,23,11,25,21.60
2010,06,23,11,26,21.60
2010,06,23,11,27,21.70
2010,06,23,11,28,21.80
2010,06,23,11,29,21.80
2010,06,23,11,30,21.90
2010,06,23,11,31,21.90
2010,06,23,11,32,22.00
2010,06,23,11,33,22.00
2010,06,23,11,34,22.10
2010,06,23,11,35,22.10
2010,06,23,11,36,22.20
2010,06,23,11,37,22.20
2010,06,23,11,38,22.30
2010,06,23,11,39,22.30
2010,06,23,11,40,22.40
2010,06,23,11,41,22.40
2010,06,23,11,42,22.50
2010,06,23,11,43,22.60
2010,06,23,11,44,22.70
2010,06,23,11,45,22.70
2010,06,23,11,46,22.70
2010,06,23,11,47,22.70
2010,06,23,11,48,22.70
2010,06,23,11,49,22.60
2010,06,23,11,50,22.60
2010,06,23,11,51,22.60
2010,06,23,11,52,22.60
2010,06,23,11,53,22.60
2010,06,23,11,54,22.60
2010,06,23,11,55,22.60
2010,06,23,11,56,22.50
2010,06,23,11,57,22.50
2010,06,23,11,58,22.50
2010,06,23,11,59,22.50
2010,06,23,12,00,22.50
2010,06,23,12,01,22.60
2010,06,23,12,02,22.70
2010,06,23,12,03,22.70
2010,06,23,12,04,22.80
2010,06,23,12,05,22.80
2010,06,23,12,06,22.80
2010,06,23,12,07,22.80
2010,06,23,12,08,22.70
2010,06,23,12,09,22.60
2010,06,23,12,10,22.50
2010,06,23,12,11,22.50
2010,06,23,12,12,22.40
2010,06,23,12,13,22.40
2010,06,23,12,14,22.30
2010,06,23,12,15,22.20
2010,06,23,12,16,22.00
2010,06,23,12,17,21.60
2010,06,23,12,18,21.30
2010,06,23,12,19,21.00
2010,06,23,12,20,20.80
2010,06,23,12,21,20.70
2010,06,23,12,22,20.50
2010,06,23,12,23,20.40
2010,06,23,12,24,20.40
2010,06,23,12,25,20.30
2010,06,23,12,26,20.30
2010,06,23,12,27,20.30
2010,06,23,12,28,20.20
2010,06,23,12,29,20.20
2010,06,23,12,30,20.20
2010,06,23,12,31,20.10
2010,06,23,12,32,20.10
2010,06,23,12,33,20.10
2010,06,23,12,34,20.10
2010,06,23,12,35,20.00
2010,06,23,12,36,19.90
2010,06,23,12,37,19.90
2010,06,23,12,38,19.80
2010,06,23,12,39,19.80
2010,06,23,12,40,19.80
2010,06,23,12,41,19.70
2010,06,23,12,42,19.60
2010,06,23,12,43,19.50
2010,06,23,12,44,19.50
2010,06,23,12,45,19.50
2010,06,23,12,46,19.50
2010,06,23,12,47,19.60
2010,06,23,12,48,19.60
2010,06,23,12,49,19.70
2010,06,23,12,50,19.70
2010,06,23,12,51,19.70
2010,06,23,12,52,19.80
2010,06,23,12,53,19.80
2010,06,23,12,54,19.90
2010,06,23,12,55,19.90
2010,06,23,12,56,20.00
2010,06,23,12,57,20.00
2010,06,23,12,58,20.00
2010,06,23,12,59,20.00
2010,06,23,13,00,20.00
2010,06,23,13,01,20.10
2010,06,23,13,02,20.20
2010,06,23,13,03,20.20
2010,06,23,13,04,20.30
2010,06,23,13,05,20.50
2010,06,23,13,06,20.60
2010,06,23,13,07,20.70
2010,06,23,13,08,20.80
2010,06,23,13,09,20.80
2010,06,23,13,10,20.80
2010,06,23,13,11,20.80
2010,06,23,13,12,20.80
2010,06,23,13,13,20.70
2010,06,23,13,14,20.70
2010,06,23,13,15,20.70
2010,06,23,13,16,20.70
2010,06,23,13,17,20.70
2010,06,23,13,18,20.70
2010,06,23,13,19,20.70
2010,06,23,13,20,20.80
2010,06,23,13,21,20.90
2010,06,23,13,22,21.00
2010,06,23,13,23,21.00
2010,06,23,13,24,20.90
2010,06,23,13,25,20.90
2010,06,23,13,26,21.00
2010,06,23,13,27,21.00
2010,06,23,13,28,21.10
2010,06,23,13,29,21.10
2010,06,23,13,30,21.10
2010,06,23,13,31,21.20
2010,06,23,13,32,21.20
2010,06,23,13,33,21.30
2010,06,23,13,34,21.30
2010,06,23,13,35,21.40
2010,06,23,13,36,21.50
2010,06,23,13,37,21.60
2010,06,23,13,38,21.70
2010,06,23,13,39,21.80
2010,06,23,13,40,21.90
2010,06,23,13,41,22.00
2010,06,23,13,42,22.10
2010,06,23,13,43,22.20
2010,06,23,13,44,22.20
2010,06,23,13,45,22.30
2010,06,23,13,46,22.30
2010,06,23,13,47,22.30
2010,06,23,13,48,22.30
2010,06,23,13,49,22.30
2010,06,23,13,50,22.30
2010,06,23,13,51,22.20
2010,06,23,13,52,22.20
2010,06,23,13,53,22.20
2010,06,23,13,54,22.20
2010,06,23,13,55,22.30
2010,06,23,13,56,22.30
2010,06,23,13,57,22.30
2010,06,23,13,58,22.30
2010,06,23,13,59,22.40
2010,06,23,14,00,22.50
2010,06,23,14,01,22.50
2010,06,23,14,02,22.60
2010,06,23,14,03,22.70
2010,06,23,14,04,22.70
2010,06,23,14,05,22.70
2010,06,23,14,06,22.80
2010,06,23,14,07,22.80
2010,06,23,14,08,22.80
2010,06,23,14,09,22.90
2010,06,23,14,10,22.90
2010,06,23,14,11,22.90
2010,06,23,14,12,22.90
2010,06,23,14,13,22.90
2010,06,23,14,14,22.90
2010,06,23,14,15,22.80
2010,06,23,14,16,22.80
2010,06,23,14,17,22.80
2010,06,23,14,18,22.70
2010,06,23,14,19,22.70
2010,06,23,14,20,22.70
2010,06,23,14,21,22.70
2010,06,23,14,22,22.70
2010,06,23,14,23,22.70
2010,06,23,14,24,22.70
2010,06,23,14,25,22.70
2010,06,23,14,26,22.70
2010,06,23,14,27,22.60
2010,06,23,14,28,22.60
2010,06,23,14,29,22.60
2010,06,23,14,30,22.60
2010,06,23,14,31,22.60
2010,06,23,14,32,22.70
2010,06,23,14,33,22.70
2010,06,23,14,34,22.70
2010,06,23,14,35,22.70
2010,06,23,14,36,22.70
2010,06,23,14,37,22.70
2010,06,23,14,38,22.70
2010,06,23,14,39,22.70
2010,06,23,14,40,22.70
2010,06,23,14,41,22.70
2010,06,23,14,42,22.70
2010,06,23,14,43,22.70
2010,06,23,14,44,22.70
2010,06,23,14,45,22.70
2010,06,23,14,46,22.70
2010,06,23,14,47,22.70
2010,06,23,14,48,22.80
2010,06,23,14,49,22.80
2010,06,23,14,50,22.80
2010,06,23,14,51,22.80
2010,06,23,14,52,22.70
2010,06,23,14,53,22.70
2010,06,23,14,54,22.60
2010,06,23,14,55,22.60
2010,06,23,14,56,22.50
2010,06,23,14,57,22.40
2010,06,23,14,58,22.30
2010,06,23,14,59,22.30
2010,06,23,15,00,22.20
2010,06,23,15,01,22.20
2010,06,23,15,02,22.10
2010,06,23,15,03,22.10
2010,06,23,15,04,22.10
2010,06,23,15,05,22.00
2010,06,23,15,06,22.00
2010,06,23,15,07,22.00
2010,06,23,15,08,22.00
2010,06,23,15,09,21.90
2010,06,23,15,10,21.80
2010,06,23,15,11,21.60
2010,06,23,15,12,21.50
2010,06,23,15,13,21.40
2010,06,23,15,14,21.30
2010,06,23,15,15,21.20
2010,06,23,15,16,21.20
2010,06,23,15,17,21.10
2010,06,23,15,18,21.00
2010,06,23,15,19,21.00
2010,06,23,15,20,21.10
2010,06,23,15,21,21.10
2010,06,23,15,22,21.10
2010,06,23,15,23,21.10
2010,06,23,15,24,21.10
2010,06,23,15,25,21.10
2010,06,23,15,26,21.10
2010,06,23,15,27,21.10
2010,06,23,15,28,21.20
2010,06,23,15,29,21.20
2010,06,23,15,30,21.20
2010,06,23,15,31,21.20
2010,06,23,15,32,21.30
2010,06,23,15,33,21.30
2010,06,23,15,34,21.30
2010,06,23,15,35,21.20
2010,06,23,15,36,21.00
2010,06,23,15,37,20.90
2010,06,23,15,38,20.80
2010,06,23,15,39,20.70
2010,06,23,15,40,20.50
2010,06,23,15,41,20.30
2010,06,23,15,42,20.30
2010,06,23,15,43,20.20
2010,06,23,15,44,20.10
2010,06,23,15,45,20.00
2010,06,23,15,46,20.00
2010,06,23,15,47,20.10
2010,06,23,15,48,20.10
2010,06,23,15,49,20.10
2010,06,23,15,50,20.20
2010,06,23,15,51,20.20
2010,06,23,15,52,20.20
2010,06,23,15,53,20.20
2010,06,23,15,54,20.20
2010,06,23,15,55,20.20
2010,06,23,15,56,20.20
2010,06,23,15,57,20.20
2010,06,23,15,58,20.20
2010,06,23,15,59,20.30
2010,06,23,16,00,20.40
2010,06,23,16,01,20.50
2010,06,23,16,02,20.50
2010,06,23,16,03,20.60
2010,06,23,16,04,20.70
2010,06,23,16,05,20.80
2010,06,23,16,06,20.80
2010,06,23,16,07,20.90
2010,06,23,16,08,20.90
2010,06,23,16,09,20.90
2010,06,23,16,10,21.00
2010,06,23,16,11,21.10
2010,06,23,16,12,21.20
2010,06,23,16,13,21.30
2010,06,23,16,14,21.40
2010,06,23,16,15,21.50
2010,06,23,16,16,21.60
2010,06,23,16,17,21.60
2010,06,23,16,18,21.60
2010,06,23,16,19,21.60
2010,06,23,16,20,21.60
2010,06,23,16,21,21.50
2010,06,23,16,22,21.30
2010,06,23,16,23,21.20
2010,06,23,16,24,21.00
2010,06,23,16,25,20.80
2010,06,23,16,26,20.70
2010,06,23,16,27,20.50
2010,06,23,16,28,20.40
2010,06,23,16,29,20.40
2010,06,23,16,30,20.30
2010,06,23,16,31,20.20
2010,06,23,16,32,20.10
2010,06,23,16,33,20.00
2010,06,23,16,34,19.90
2010,06,23,16,35,19.90
2010,06,23,16,36,19.90
2010,06,23,16,37,19.90
2010,06,23,16,38,19.90
2010,06,23,16,39,20.00
2010,06,23,16,40,20.00
2010,06,23,16,41,20.10
2010,06,23,16,42,20.20
2010,06,23,16,43,20.20
2010,06,23,16,44,20.20
2010,06,23,16,45,20.20
2010,06,23,16,46,20.30
2010,06,23,16,47,20.30
2010,06,23,16,48,20.30
2010,06,23,16,49,20.30
2010,06,23,16,50,20.30
2010,06,23,16,51,20.30
2010,06,23,16,52,20.30
2010,06,23,16,53,20.20
2010,06,23,16,54,20.10
2010,06,23,16,55,20.00
2010,06,23,16,56,19.90
2010,06,23,16,57,19.80
2010,06,23,16,58,19.80
2010,06,23,16,59,19.70
2010,06,23,17,00,19.60
2010,06,23,17,01,19.50
2010,06,23,17,02,19.40
2010,06,23,17,03,19.30
2010,06,23,17,04,19.20
2010,06,23,17,05,19.10
2010,06,23,17,06,19.00
2010,06,23,17,07,19.00
2010,06,23,17,08,18.90
2010,06,23,17,09,18.90
2010,06,23,17,10,18.90
2010,06,23,17,11,19.00
2010,06,23,17,12,19.00
2010,06,23,17,13,19.10
2010,06,23,17,14,19.20
2010,06,23,17,15,19.20
2010,06,23,17,16,19.30
2010,06,23,17,17,19.30
2010,06,23,17,18,19.30
2010,06,23,17,19,19.30
2010,06,23,17,20,19.30
2010,06,23,17,21,19.20
2010,06,23,17,22,19.10
2010,06,23,17,23,19.00
2010,06,23,17,24,18.90
2010,06,23,17,25,18.80
2010,06,23,17,26,18.70
2010,06,23,17,27,18.60
2010,06,23,17,28,18.50
2010,06,23,17,29,18.40
2010,06,23,17,30,18.40
2010,06,23,17,31,18.40
2010,06,23,17,32,18.40
2010,06,23,17,33,18.40
2010,06,23,17,34,18.40
2010,06,23,17,35,18.30
2010,06,23,17,36,18.30
2010,06,23,17,37,18.30
2010,06,23,17,38,18.20
2010,06,23,17,39,18.20
2010,06,23,17,40,18.20
2010,06,23,17,41,18.20
2010,06,23,17,42,18.20
2010,06,23,17,43,18.20
2010,06,23,17,44,18.20
2010,06,23,17,45,18.30
2010,06,23,17,46,18.30
2010,06,23,17,47,18.30
2010,06,23,17,48,18.30
2010,06,23,17,49,18.30
2010,06,23,17,50,18.30
2010,06,23,17,51,18.30
2010,06,23,17,52,18.40
2010,06,23,17,53,18.40
2010,06,23,17,54,18.40
2010,06,23,17,55,18.40
2010,06,23,17,56,18.40
2010,06,23,17,57,18.40
2010,06,23,17,58,18.40
2010,06,23,17,59,18.30
2010,06,23,18,00,18.20
2010,06,23,18,01,18.20
2010,06,23,18,02,18.10
2010,06,23,18,03,18.10
2010,06,23,18,04,18.00
2010,06,23,18,05,18.00
2010,06,23,18,06,17.90
2010,06,23,18,07,17.90
2010,06,23,18,08,17.90
2010,06,23,18,09,18.00
2010,06,23,18,10,18.10
2010,06,23,18,11,18.10
2010,06,23,18,12,18.10
2010,06,23,18,13,18.20
2010,06,23,18,14,18.10
2010,06,23,18,15,18.10
2010,06,23,18,16,18.10
2010,06,23,18,17,18.00
2010,06,23,18,18,17.90
2010,06,23,18,19,17.90
2010,06,23,18,20,17.80
2010,06,23,18,21,17.70
2010,06,23,18,22,17.70
2010,06,23,18,23,17.60
2010,06,23,18,24,17.50
2010,06,23,18,25,17.40
2010,06,23,18,26,17.40
2010,06,23,18,27,17.30
2010,06,23,18,28,17.30
2010,06,23,18,29,17.20
2010,06,23,18,30,17.10
2010,06,23,18,31,17.00
2010,06,23,18,32,17.00
2010,06,23,18,33,16.90
2010,06,23,18,34,16.90
2010,06,23,18,35,16.80
2010,06,23,18,36,16.80
2010,06,23,18,37,16.80
2010,06,23,18,38,16.80
2010,06,23,18,39,16.70
2010,06,23,18,40,16.70
2010,06,23,18,41,16.70
2010,06,23,18,42,16.60
2010,06,23,18,43,16.60
2010,06,23,18,44,16.60
2010,06,23,18,45,16.50
2010,06,23,18,46,16.50
2010,06,23,18,47,16.50
2010,06,23,18,48,16.50
2010,06,23,18,49,16.50
2010,06,23,18,50,16.50
2010,06,23,18,51,16.50
2010,06,23,18,52,16.40
2010,06,23,18,53,16.40
2010,06,23,18,54,16.40
2010,06,23,18,55,16.40
2010,06,23,18,56,16.40
2010,06,23,18,57,16.40
2010,06,23,18,58,16.40
2010,06,23,18,59,16.40
2010,06,23,19,00,16.40
2010,06,23,19,01,16.40
2010,06,23,19,02,16.40
2010,06,23,19,03,16.40
2010,06,23,19,04,16.40
2010,06,23,19,05,16.40
2010,06,23,19,06,16.50
2010,06,23,19,07,16.50
2010,06,23,19,08,16.50
2010,06,23,19,09,16.60
2010,06,23,19,10,16.60
2010,06,23,19,11,16.60
2010,06,23,19,12,16.60
2010,06,23,19,13,16.60
2010,06,23,19,14,16.70
2010,06,23,19,15,16.70
2010,06,23,19,16,16.70
2010,06,23,19,17,16.70
2010,06,23,19,18,16.70
2010,06,23,19,19,16.70
2010,06,23,19,20,16.80
2010,06,23,19,21,16.80
2010,06,23,19,22,16.80
2010,06,23,19,23,16.80
2010,06,23,19,24,16.90
2010,06,23,19,25,16.90
2010,06,23,19,26,16.90
2010,06,23,19,27,16.90
2010,06,23,19,28,16.90
2010,06,23,19,29,16.90
2010,06,23,19,30,16.90
2010,06,23,19,31,16.90
2010,06,23,19,32,16.90
2010,06,23,19,33,16.90
2010,06,23,19,34,16.90
2010,06,23,19,35,16.90
2010,06,23,19,36,17.00
2010,06,23,19,37,17.00
2010,06,23,19,38,17.00
2010,06,23,19,39,17.00
2010,06,23,19,40,17.00
2010,06,23,19,41,17.10
2010,06,23,19,42,17.10
2010,06,23,19,43,17.10
2010,06,23,19,44,17.10
2010,06,23,19,45,17.20
2010,06,23,19,46,17.20
2010,06,23,19,47,17.20
2010,06,23,19,48,17.20
2010,06,23,19,49,17.20
2010,06,23,19,50,17.30
2010,06,23,19,51,17.30
2010,06,23,19,52,17.30
2010,06,23,19,53,17.30
2010,06,23,19,54,17.30
2010,06,23,19,55,17.30
2010,06,23,19,56,17.40
2010,06,23,19,57,17.40
2010,06,23,19,58,17.40
2010,06,23,19,59,17.40
2010,06,23,20,00,17.40
2010,06,23,20,01,17.40
2010,06,23,20,02,17.40
2010,06,23,20,03,17.40
2010,06,23,20,04,17.50
2010,06,23,20,05,17.50
2010,06,23,20,06,17.50
2010,06,23,20,07,17.50
2010,06,23,20,08,17.60
2010,06,23,20,09,17.60
2010,06,23,20,10,17.60
2010,06,23,20,11,17.60
2010,06,23,20,12,17.60
2010,06,23,20,13,17.70
2010,06,23,20,14,17.70
2010,06,23,20,15,17.70
2010,06,23,20,16,17.70
2010,06,23,20,17,17.80
2010,06,23,20,18,17.80
2010,06,23,20,19,17.80
2010,06,23,20,20,17.80
2010,06,23,20,21,17.90
2010,06,23,20,22,17.90
2010,06,23,20,23,17.90
2010,06,23,20,24,17.90
2010,06,23,20,25,17.90
2010,06,23,20,26,18.00
2010,06,23,20,27,18.00
2010,06,23,20,28,18.00
2010,06,23,20,29,18.00
2010,06,23,20,30,18.10
2010,06,23,20,31,18.10
2010,06,23,20,32,18.10
2010,06,23,20,33,18.10
2010,06,23,20,34,18.10
2010,06,23,20,35,18.20
2010,06,23,20,36,18.20
2010,06,23,20,37,18.20
2010,06,23,20,38,18.20
2010,06,23,20,39,18.20
2010,06,23,20,40,18.20
2010,06,23,20,41,18.20
2010,06,23,20,42,18.30
2010,06,23,20,43,18.30
2010,06,23,20,44,18.30
2010,06,23,20,45,18.30
2010,06,23,20,46,18.30
2010,06,23,20,47,18.30
2010,06,23,20,48,18.30
2010,06,23,20,49,18.30
2010,06,23,20,50,18.30
2010,06,23,20,51,18.30
2010,06,23,20,52,18.40
2010,06,23,20,53,18.40
2010,06,23,20,54,18.40
2010,06,23,20,55,18.40
2010,06,23,20,56,18.40
2010,06,23,20,57,18.40
2010,06,23,20,58,18.40
2010,06,23,20,59,18.40
2010,06,23,21,00,18.40
2010,06,23,21,01,18.30
2010,06,23,21,02,18.30
2010,06,23,21,03,18.30
2010,06,23,21,04,18.30
2010,06,23,21,05,18.30
2010,06,23,21,06,18.30
2010,06,23,21,07,18.30
2010,06,23,21,08,18.30
2010,06,23,21,09,18.30
2010,06,23,21,10,18.30
2010,06,23,21,11,18.30
2010,06,23,21,12,18.30
2010,06,23,21,13,18.30
2010,06,23,21,14,18.30
2010,06,23,21,15,18.20
2010,06,23,21,16,18.20
2010,06,23,21,17,18.20
2010,06,23,21,18,18.20
2010,06,23,21,19,18.20
2010,06,23,21,20,18.20
2010,06,23,21,21,18.10
2010,06,23,21,22,18.10
2010,06,23,21,23,18.10
2010,06,23,21,24,18.10
2010,06,23,21,25,18.10
2010,06,23,21,26,18.10
2010,06,23,21,27,18.10
2010,06,23,21,28,18.10
2010,06,23,21,29,18.10
2010,06,23,21,30,18.20
2010,06,23,21,31,18.20
2010,06,23,21,32,18.20
2010,06,23,21,33,18.20
2010,06,23,21,34,18.20
2010,06,23,21,35,18.20
2010,06,23,21,36,18.20
2010,06,23,21,37,18.20
2010,06,23,21,38,18.20
2010,06,23,21,39,18.20
2010,06,23,21,40,18.10
2010,06,23,21,41,18.10
2010,06,23,21,42,18.10
2010,06,23,21,43,18.10
2010,06,23,21,44,18.10
2010,06,23,21,45,18.10
2010,06,23,21,46,18.00
2010,06,23,21,47,18.00
2010,06,23,21,48,18.00
2010,06,23,21,49,17.90
2010,06,23,21,50,17.90
2010,06,23,21,51,17.90
2010,06,23,21,52,17.80
2010,06,23,21,53,17.80
2010,06,23,21,54,17.80
2010,06,23,21,55,17.70
2010,06,23,21,56,17.70
2010,06,23,21,57,17.70
2010,06,23,21,58,17.60
2010,06,23,21,59,17.60
2010,06,23,22,00,17.60
2010,06,23,22,01,17.50
2010,06,23,22,02,17.50
2010,06,23,22,03,17.50
2010,06,23,22,04,17.40
2010,06,23,22,05,17.40
2010,06,23,22,06,17.40
2010,06,23,22,07,17.40
2010,06,23,22,08,17.40
2010,06,23,22,09,17.30
2010,06,23,22,10,17.30
2010,06,23,22,11,17.30
2010,06,23,22,12,17.30
2010,06,23,22,13,17.30
2010,06,23,22,14,17.30
2010,06,23,22,15,17.30
2010,06,23,22,16,17.30
2010,06,23,22,17,17.30
2010,06,23,22,18,17.30
2010,06,23,22,19,17.30
2010,06,23,22,20,17.30
2010,06,23,22,21,17.30
2010,06,23,22,22,17.30
2010,06,23,22,23,17.30
2010,06,23,22,24,17.30
2010,06,23,22,25,17.30
2010,06,23,22,26,17.30
2010,06,23,22,27,17.40
2010,06,23,22,28,17.40
2010,06,23,22,29,17.40
2010,06,23,22,30,17.40
2010,06,23,22,31,17.40
2010,06,23,22,32,17.40
2010,06,23,22,33,17.40
2010,06,23,22,34,17.50
2010,06,23,22,35,17.50
2010,06,23,22,36,17.60
2010,06,23,22,37,17.60
2010,06,23,22,38,17.60
2010,06,23,22,39,17.70
2010,06,23,22,40,17.70
2010,06,23,22,41,17.70
2010,06,23,22,42,17.70
2010,06,23,22,43,17.70
2010,06,23,22,44,17.80
2010,06,23,22,45,17.80
2010,06,23,22,46,17.80
2010,06,23,22,47,17.80
2010,06,23,22,48,17.80
2010,06,23,22,49,17.90
2010,06,23,22,50,17.90
2010,06,23,22,51,17.90
2010,06,23,22,52,17.90
2010,06,23,22,53,17.90
2010,06,23,22,54,17.90
2010,06,23,22,55,17.90
2010,06,23,22,56,17.90
2010,06,23,22,57,18.00
2010,06,23,22,58,18.00
2010,06,23,22,59,18.00
2010,06,23,23,00,18.00
2010,06,23,23,01,18.10
2010,06,23,23,02,18.10
2010,06,23,23,03,18.10
2010,06,23,23,04,18.10
2010,06,23,23,05,18.10
2010,06,23,23,06,18.10
2010,06,23,23,07,18.20
2010,06,23,23,08,18.20
2010,06,23,23,09,18.20
2010,06,23,23,10,18.20
2010,06,23,23,11,18.20
2010,06,23,23,12,18.20
2010,06,23,23,13,18.30
2010,06,23,23,14,18.30
2010,06,23,23,15,18.30
2010,06,23,23,16,18.30
2010,06,23,23,17,18.30
2010,06,23,23,18,18.30
2010,06,23,23,19,18.30
2010,06,23,23,20,18.30
2010,06,23,23,21,18.30
2010,06,23,23,22,18.30
2010,06,23,23,23,18.30
2010,06,23,23,24,18.30
2010,06,23,23,25,18.30
2010,06,23,23,26,18.30
2010,06,23,23,27,18.30
2010,06,23,23,28,18.30
2010,06,23,23,29,18.30
2010,06,23,23,30,18.30
2010,06,23,23,31,18.30
2010,06,23,23,32,18.30
2010,06,23,23,33,18.30
2010,06,23,23,34,18.20
2010,06,23,23,35,18.20
2010,06,23,23,36,18.20
2010,06,23,23,37,18.20
2010,06,23,23,38,18.20
2010,06,23,23,39,18.20
2010,06,23,23,40,18.20
2010,06,23,23,41,18.20
2010,06,23,23,42,18.20
2010,06,23,23,43,18.20